Stations météo

réclame
Mon MeteoGroup
Lerida, Espagne (8171): Température de l'air & dewpoint: 18.01.2018 10:00:00 - 24.01.2018 10:00:00 (CET)Lerida, Espagne (8171): Vitesse du vent: 18.01.2018 10:00:00 - 24.01.2018 10:00:00 (CET)Lerida, Espagne (8171): Direction du vent: 18.01.2018 10:00:00 - 24.01.2018 10:00:00 (CET)Lerida, Espagne (8171): reduced air pressure: 18.01.2018 10:00:00 - 24.01.2018 10:00:00 (CET)Lerida, Espagne (8171): visibility: 18.01.2018 10:00:00 - 24.01.2018 10:00:00 (CET)Lerida, Espagne (8171): Quantités de précipitations: 18.01.2018 10:00:00 - 24.01.2018 10:00:00 (CET)
Date & Time tt [°C] td [°C] ff [km/h] ff [knt] dd ppp [hPa] vv [km] rr [mm]
24.01.2018 10:00:00 3,7 3,1 4 2 WSW 1030,1 3,8 -
24.01.2018 09:00:00 2,1 1,8 2 1 SW 1029,9 7 0,0
24.01.2018 08:00:00 2,5 2,1 2 1 NE 1029,9 - 0,0
24.01.2018 07:00:00 3,5 2,9 5 3 NE 1029,4 6 -
24.01.2018 06:00:00 4,1 3,2 5 3 NE 1029,4 6 0,0
24.01.2018 05:00:00 5,0 4,1 9 5 NNE 1029,4 11 0,0
24.01.2018 04:00:00 5,5 4,5 9 5 NNE 1029,6 13 -
24.01.2018 03:00:00 5,8 4,6 8 4 NNE 1029,7 12 0,0
24.01.2018 02:00:00 6,1 4,9 9 5 NNE 1029,6 12 0,0
24.01.2018 01:00:00 6,2 4,8 11 6 NNE 1030,0 12 -
24.01.2018 00:00:00 6,7 5,3 11 6 NNE 1030,0 12 0,0
23.01.2018 23:00:00 6,9 5,5 9 5 NE 1029,6 10 0,0
23.01.2018 22:00:00 7,9 6,0 9 5 NE 1029,2 10 -
23.01.2018 21:00:00 8,7 6,3 9 5 NE 1028,9 12 0,0
23.01.2018 20:00:00 10,1 7,3 9 5 NE 1028,5 16 0,0
23.01.2018 19:00:00 11,8 8,6 5 3 NE 1027,8 9 -
23.01.2018 18:00:00 13,5 9,2 5 3 NE 1027,1 18 0,0
23.01.2018 17:00:00 15,4 9,3 5 3 ENE 1026,5 20 0,0
23.01.2018 16:00:00 15,6 9,7 5 3 NE 1026,4 25 -
23.01.2018 15:00:00 15,4 9,5 5 3 N 1026,4 20 0,0
23.01.2018 14:00:00 14,5 9,3 5 3 WSW 1027,1 20 0,0
23.01.2018 13:00:00 12,2 8,5 2 1 WNW 1028,1 18 -
23.01.2018 12:00:00 10,3 7,4 4 2 E 1028,8 20 0,0
23.01.2018 11:00:00 8,1 6,1 5 3 NE 1028,9 12 0,0
23.01.2018 10:00:00 6,4 4,9 8 4 NE 1028,6 16 -
23.01.2018 09:00:00 4,3 3,7 8 4 NE 1028,2 7 0,0
23.01.2018 08:00:00 4,0 3,1 4 2 NNE 1027,7 9 0,0
23.01.2018 07:00:00 4,6 3,9 5 3 E 1027,4 14 -
23.01.2018 06:00:00 4,8 4,1 8 4 N 1027,0 18 0,0
23.01.2018 05:00:00 6,3 5,4 4 2 NE 1026,7 19 0,0
23.01.2018 04:00:00 7,1 6,0 5 3 SW 1026,3 20 -
23.01.2018 03:00:00 7,6 6,1 5 3 SW 1026,0 20 0,0
23.01.2018 02:00:00 8,1 6,1 4 2 SW 1026,1 20 0,0
23.01.2018 01:00:00 9,7 7,0 8 4 WSW 1026,3 20 -
23.01.2018 00:00:00 10,5 7,0 8 4 SW 1026,1 20 0,0
22.01.2018 23:00:00 11,5 7,2 11 6 SW 1025,1 20 0,0
22.01.2018 22:00:00 11,9 7,2 15 8 SSW 1024,6 20 -
22.01.2018 21:00:00 12,4 7,3 15 8 SW 1024,2 20 0,0
22.01.2018 20:00:00 12,9 6,9 13 7 SW 1023,9 20 0,0
22.01.2018 19:00:00 13,9 6,7 13 7 SW 1023,7 50 -
22.01.2018 18:00:00 16,0 6,7 18 10 WSW 1023,2 20 0,0
22.01.2018 17:00:00 17,9 6,7 24 13 W 1023,0 20 0,0
22.01.2018 16:00:00 18,9 6,4 26 14 W 1022,6 35 -
22.01.2018 15:00:00 19,1 7,2 21 11 W 1022,7 20 0,0
22.01.2018 14:00:00 18,1 7,2 24 13 W 1023,7 20 0,0
22.01.2018 13:00:00 16,6 7,8 15 8 WSW 1024,7 30 -
22.01.2018 12:00:00 14,6 7,6 18 10 WSW 1025,7 20 0,0
22.01.2018 11:00:00 13,1 7,5 15 8 SW 1026,2 20 0,0
22.01.2018 10:00:00 11,3 7,0 18 10 WSW 1026,0 25 -
22.01.2018 09:00:00 8,9 6,7 11 6 SW 1025,8 20 0,0
22.01.2018 08:00:00 8,0 6,3 8 4 WSW 1025,6 20 0,0
22.01.2018 07:00:00 8,2 6,3 13 7 SW 1025,1 20 -
22.01.2018 06:00:00 8,9 6,7 9 5 SSW 1025,1 20 0,0
22.01.2018 05:00:00 9,6 7,0 11 6 SSW 1025,2 20 0,0
22.01.2018 04:00:00 9,9 7,5 11 6 SW 1025,1 20 -
22.01.2018 03:00:00 10,2 7,4 11 6 SW 1025,3 20 0,0
22.01.2018 02:00:00 10,6 7,7 15 8 SSW 1025,0 20 0,0
22.01.2018 01:00:00 11,1 7,4 11 6 SW 1025,3 20 -
22.01.2018 00:00:00 12,0 7,7 9 5 SW 1024,9 20 0,0
21.01.2018 23:00:00 12,9 7,8 13 7 SW 1024,3 20 0,0
21.01.2018 22:00:00 13,7 7,7 15 8 W 1023,5 20 -
21.01.2018 21:00:00 14,0 8,0 22 12 W 1022,9 20 0,0
21.01.2018 20:00:00 14,8 8,3 31 17 WNW 1022,4 20 0,0
21.01.2018 19:00:00 15,6 8,3 18 10 W 1022,1 65 -
21.01.2018 18:00:00 16,9 8,8 31 17 WNW 1021,2 20 0,0
21.01.2018 17:00:00 19,1 9,3 24 13 W 1021,1 20 0,0
21.01.2018 16:00:00 20,0 9,3 34 18 WNW 1020,9 65 -
21.01.2018 15:00:00 20,5 8,8 31 17 WNW 1020,2 20 0,0
21.01.2018 14:00:00 19,8 9,4 35 19 WNW 1020,6 20 0,0
21.01.2018 13:00:00 18,7 9,7 31 17 WNW 1021,6 20 -
21.01.2018 12:00:00 17,6 9,5 26 14 WNW 1022,7 20 0,0
21.01.2018 11:00:00 16,2 9,4 26 14 W 1023,1 20 0,0
21.01.2018 10:00:00 14,1 8,9 22 12 WSW 1022,6 20 -
21.01.2018 09:00:00 12,7 8,6 15 8 SW 1022,5 20 0,0
21.01.2018 08:00:00 13,0 8,7 22 12 W 1021,2 20 0,0
21.01.2018 07:00:00 13,2 8,5 39 21 WNW 1020,1 20 -
21.01.2018 06:00:00 13,4 8,2 37 20 WNW 1019,8 20 0,0
21.01.2018 05:00:00 13,5 8,3 39 21 WNW 1019,4 20 0,0
21.01.2018 04:00:00 13,7 8,1 37 20 WNW 1019,2 20 -
21.01.2018 03:00:00 13,8 8,2 39 21 W 1018,9 20 0,0
21.01.2018 02:00:00 13,7 8,1 35 19 W 1018,9 20 0,0
21.01.2018 01:00:00 13,7 8,1 35 19 W 1018,9 20 -
21.01.2018 00:00:00 13,5 7,9 39 21 WNW 1018,8 20 0,0
20.01.2018 23:00:00 13,3 7,5 39 21 WNW 1018,7 20 0,0
20.01.2018 22:00:00 13,1 7,5 35 19 WNW 1018,5 20 -
20.01.2018 21:00:00 13,1 7,1 34 18 W 1018,5 20 0,0
20.01.2018 20:00:00 13,5 6,1 41 22 WNW 1018,0 20 0,0
20.01.2018 19:00:00 13,6 5,2 31 17 W 1017,9 40 -
20.01.2018 18:00:00 14,3 4,8 28 15 W 1017,9 20 0,0
20.01.2018 17:00:00 15,7 3,5 29 16 W 1017,4 20 0,0
20.01.2018 16:00:00 16,2 1,5 31 17 W 1017,7 30 -
20.01.2018 15:00:00 15,9 0,8 29 16 W 1018,4 20 0,0
20.01.2018 14:00:00 15,3 1,8 26 14 W 1019,0 20 0,0
20.01.2018 13:00:00 10,2 4,8 5 3 N 1021,1 18 -
20.01.2018 12:00:00 8,0 4,0 5 3 NE 1022,9 15 0,0
20.01.2018 11:00:00 5,3 3,0 4 2 ENE 1024,0 10 0,0
20.01.2018 10:00:00 2,5 1,3 4 2 NE 1024,3 5 -
20.01.2018 09:00:00 0,6 0,2 5 3 ENE 1024,5 3,9 0,0
20.01.2018 08:00:00 0,2 -0,4 5 3 NE 1024,3 2,3 0,0
20.01.2018 07:00:00 0,7 0,0 5 3 NNE 1023,8 3,3 -
20.01.2018 06:00:00 0,9 0,0 4 2 NE 1023,8 3,0 0,0
20.01.2018 05:00:00 1,9 0,7 5 3 NNE 1023,3 - 0,0
20.01.2018 04:00:00 2,8 1,2 8 4 NE 1023,3 8 -
20.01.2018 03:00:00 4,5 2,7 5 3 S 1022,8 20 0,0
20.01.2018 02:00:00 4,6 2,5 9 5 S 1022,9 20 0,0
20.01.2018 01:00:00 5,4 2,2 8 4 SW 1022,9 20 -
20.01.2018 00:00:00 6,9 2,6 9 5 W 1022,7 20 0,0
19.01.2018 23:00:00 7,0 2,7 11 6 WSW 1022,3 20 0,0
19.01.2018 22:00:00 8,3 2,7 9 5 WSW 1021,9 20 -
19.01.2018 21:00:00 8,8 3,6 15 8 WSW 1021,1 20 0,0
19.01.2018 20:00:00 6,5 3,5 5 3 SW 1020,8 7 0,0
19.01.2018 19:00:00 7,9 4,1 5 3 NNW 1020,0 9 -
19.01.2018 18:00:00 10,2 4,8 5 3 NE 1018,9 15 0,0
19.01.2018 17:00:00 12,3 5,5 5 3 NE 1018,0 19 0,0
19.01.2018 16:00:00 12,3 5,5 9 5 NE 1018,3 20 -
19.01.2018 15:00:00 12,4 5,3 5 3 E 1018,3 19 0,0
19.01.2018 14:00:00 11,3 5,2 4 2 SSW 1019,0 15 0,0
19.01.2018 13:00:00 9,0 4,4 4 2 E 1020,0 16 -
19.01.2018 12:00:00 6,4 3,9 4 2 NE 1020,7 13 0,0
19.01.2018 11:00:00 3,3 2,0 5 3 N 1021,5 9 0,0
19.01.2018 10:00:00 1,3 0,6 8 4 NE 1021,5 7 -
19.01.2018 09:00:00 -0,2 -0,8 5 3 NNE 1021,1 - 0,0
19.01.2018 08:00:00 -0,1 -0,7 5 3 NNE 1021,2 4,7 0,0
19.01.2018 07:00:00 0,2 -0,2 8 4 ENE 1021,1 5 -
19.01.2018 06:00:00 0,3 -0,3 5 3 ENE 1020,6 4,8 0,0
19.01.2018 05:00:00 0,5 -0,2 4 2 NNW 1021,1 6 0,0
19.01.2018 04:00:00 0,9 -0,3 8 4 S 1021,3 5 -
19.01.2018 03:00:00 1,8 0,6 4 2 NE 1021,3 7 0,0
19.01.2018 02:00:00 2,8 1,5 8 4 NNW 1021,5 10 0,0
19.01.2018 01:00:00 3,6 2,0 5 3 ENE 1022,1 12 -
19.01.2018 00:00:00 4,2 2,4 9 5 NNE 1021,7 12 0,0
18.01.2018 23:00:00 4,0 2,2 8 4 NNE 1021,8 9 0,0
18.01.2018 22:00:00 4,7 2,4 5 3 NE 1021,8 8 -
18.01.2018 21:00:00 4,9 2,6 8 4 N 1021,6 7 0,0
18.01.2018 20:00:00 6,0 2,6 2 1 WNW 1021,8 10 0,0
18.01.2018 19:00:00 7,4 3,1 2 1 SW 1021,8 12 -
18.01.2018 18:00:00 9,9 3,4 4 2 SSW 1021,7 20 0,0
18.01.2018 17:00:00 11,8 3,5 5 3 SW 1021,9 20 0,0
18.01.2018 16:00:00 11,7 3,7 11 6 W 1022,3 30 -
18.01.2018 15:00:00 11,8 3,3 11 6 WNW 1022,9 20 0,0
18.01.2018 14:00:00 10,5 4,2 4 2 SSE 1024,1 20 0,0
18.01.2018 13:00:00 8,4 3,8 4 2 N 1025,8 19 -
18.01.2018 12:00:00 6,3 2,7 5 3 N 1027,1 14 0,0
18.01.2018 11:00:00 4,7 2,2 5 3 ENE 1027,8 10 0,0
18.01.2018 10:00:00 3,3 1,8 4 2 NNE 1027,5 13 -

tt = Température de l'air
td = dewpoint
ff = Vitesse du vent
dd = Direction du vent
ppp = reduced air pressure
vv = visibility
rr = Quantités de précipitations

stations d'obs. à proximité